Home   Weather   Inglewood   Past weeks

Flag for USA Past Weather in Inglewood, California, USA — Yesterday and Last 2 Weeks

Now
67 °F

Passing clouds.


Feels Like: 67 °F
Forecast: 66 / 72 °F
Wind: 6 mph from West

Location: Hawthorne Municipal Airport

Current Time: Aug 20, 2017 at 12:58:34 am

Latest Report: Aug 19, 2017 at 11:53 pm


Visibility: 10 mi

Pressure: 29.94 "Hg

Humidity: 81%

Dew Point: 61 °F

Location of InglewoodLocation

Past Weather in Inglewood — Graph

°F

Inglewood Temperature Yesterday

Maximum temperature yesterday: 75 °F (at 10:53 am)
Minimum temperature yesterday: 67 °F (at 12:53 am)
Average temperature yesterday: 70 °F

High & Low Weather Summary for the Past Weeks

 TemperatureHumidityPressure
High79 °F (Aug 8, 10:53 am)90% (Aug 9, 4:53 am)30.03 "Hg (Aug 9, 4:53 am)
Low66 °F (Aug 12, 5:53 am)55% (Aug 16, 10:53 am)29.81 "Hg (Aug 11, 5:53 pm)
Average70 °F77%29.91 "Hg
* Reported Aug 4 10:53 pm — Aug 19 10:53 pm, Inglewood. Weather by CustomWeather, © 2017

Note: Actual official high and low records may vary slightly from our data, if they occured in-between our weather recording intervals... More about our weather records

Advertising

Inglewood Weather History for the Previous 24 Hours

Scroll right to see more
 ConditionsComfort  
Time TempWeatherWind HumidityBarometerVisibility
10:53 pm
Sat, Aug 19
67 °FClear.6 mph81%29.94 "Hg10 mi
9:53 pm68 °FClear.8 mph78%29.93 "Hg10 mi
8:53 pm68 °FClear.8 mph78%29.92 "Hg10 mi
7:53 pm69 °FClear.13 mph76%29.90 "Hg10 mi
6:53 pm70 °FSunny.12 mph76%29.89 "Hg10 mi
5:53 pm72 °FSunny.13 mph68%29.88 "Hg10 mi
4:53 pm72 °FSunny.14 mph68%29.90 "Hg10 mi
3:53 pm73 °FSunny.14 mph66%29.90 "Hg10 mi
2:53 pm73 °FSunny.10 mph64%29.92 "Hg10 mi
1:53 pm74 °FSunny.12 mph62%29.94 "Hg10 mi
12:53 pm73 °FSunny.10 mph64%29.95 "Hg10 mi
11:53 am73 °FSunny.8 mph64%29.96 "Hg10 mi
10:53 am75 °FSunny.9 mph62%29.96 "Hg10 mi
9:53 am72 °FPassing clouds.No wind68%29.97 "Hg10 mi
9:13 am69 °FScattered clouds.No wind73%29.98 "Hg10 mi
8:53 am69 °FOvercast.3 mph73%29.98 "Hg10 mi
7:53 am68 °FOvercast.No wind76%29.97 "Hg10 mi
6:53 am67 °FOvercast.3 mph81%29.96 "Hg10 mi
6:05 am68 °FOvercast.3 mph78%29.95 "Hg10 mi
5:21 am67 °FOvercast.No wind85%29.94 "Hg10 mi
4:53 am67 °FOvercast.No wind81%29.94 "Hg10 mi
3:53 am67 °FOvercast.3 mph85%29.93 "Hg10 mi
2:53 am67 °FOvercast.5 mph85%29.94 "Hg10 mi
1:53 am67 °FOvercast.3 mph85%29.95 "Hg10 mi
12:53 am67 °FOvercast.6 mph85%29.96 "Hg10 mi
Weather by CustomWeather, © 2017

See weather overviewHow to use our weather pages